RYR334 LIRN-LIMJ

Flight info

Callsign RYR334
Flight time 0h 59m
Altitude 32000
Route VEXUV8G/24 VEXUV DCT PNZ DCT LUNAK DCT RAVAL DCT ELB DCT NORNI DCT BETEN M729 IDONA
Aircraft B738/M-SDE2E3FGHIRWXY/LB1

Departure

Time 2026-04-24 15:48
Airport Naples International Airport (LIRN)

Arrival

Time 2026-04-24 16:48
Airport Genoa Cristoforo Colombo Airport (LIMJ)
Time Latitude Longitude Altitude Speed Heading
2026-04-24 15:31 40.88217 14.28764 282 ft 0 kts 328°
2026-04-24 15:40 40.88209 14.28771 278 ft 2 kts 328°
2026-04-24 15:41 40.88195 14.28783 279 ft 2 kts 329°
2026-04-24 15:41 40.88180 14.28794 283 ft 2 kts 332°
2026-04-24 15:41 40.88165 14.28802 280 ft 2 kts
2026-04-24 15:41 40.88155 14.28795 278 ft 1 kts 53°
2026-04-24 15:42 40.88154 14.28794 278 ft 0 kts 53°
2026-04-24 15:43 40.88163 14.28809 279 ft 5 kts 52°
2026-04-24 15:43 40.88196 14.28867 276 ft 12 kts 52°
2026-04-24 15:44 40.88257 14.28970 273 ft 16 kts 53°
2026-04-24 15:44 40.88329 14.29097 272 ft 18 kts 53°
2026-04-24 15:44 40.88408 14.29233 267 ft 9 kts 52°
2026-04-24 15:44 40.88447 14.29298 265 ft 9 kts 51°
2026-04-24 15:45 40.88489 14.29370 263 ft 10 kts 53°
2026-04-24 15:45 40.88532 14.29447 261 ft 11 kts 52°
2026-04-24 15:45 40.88581 14.29530 259 ft 12 kts 52°
2026-04-24 15:45 40.88632 14.29622 256 ft 13 kts 53°
2026-04-24 15:46 40.88695 14.29729 253 ft 16 kts 51°
2026-04-24 15:46 40.88768 14.29856 249 ft 19 kts 52°
2026-04-24 15:46 40.88850 14.29999 244 ft 20 kts 52°
2026-04-24 15:46 40.88933 14.30141 239 ft 10 kts 54°
2026-04-24 15:47 40.88986 14.30180 237 ft 7 kts 351°
2026-04-24 15:47 40.89028 14.30147 237 ft 8 kts 326°
2026-04-24 15:47 40.89068 14.30093 237 ft 9 kts 286°
2026-04-24 15:47 40.89041 14.30004 240 ft 24 kts 238°
2026-04-24 15:48 40.88818 14.29533 254 ft 95 kts 238°
2026-04-24 15:48 40.88368 14.28554 326 ft 147 kts 244°
2026-04-24 15:48 40.87826 14.27235 697 ft 179 kts 243°
2026-04-24 15:48 40.87110 14.25771 1363 ft 195 kts 233°
2026-04-24 15:49 40.86005 14.24716 2171 ft 208 kts 201°
2026-04-24 15:49 40.84520 14.24515 2645 ft 226 kts 171°
2026-04-24 15:49 40.83021 14.25211 3303 ft 232 kts 157°
2026-04-24 15:49 40.81461 14.25704 4165 ft 232 kts 167°
2026-04-24 15:50 40.79859 14.26113 4905 ft 236 kts 165°
2026-04-24 15:50 40.78239 14.26562 5635 ft 240 kts 165°
2026-04-24 15:50 40.76594 14.27029 6359 ft 244 kts 165°
2026-04-24 15:50 40.74929 14.27504 7094 ft 246 kts 165°
2026-04-24 15:51 40.73249 14.27984 7825 ft 248 kts 165°
2026-04-24 15:51 40.71516 14.28237 8477 ft 256 kts 188°
2026-04-24 15:51 40.69861 14.27338 9015 ft 269 kts 217°
2026-04-24 15:51 40.68351 14.25698 9281 ft 292 kts 221°
2026-04-24 15:52 40.66805 14.23896 9905 ft 301 kts 222°
2026-04-24 15:52 40.65318 14.21958 10475 ft 310 kts 236°
2026-04-24 15:52 40.64491 14.19278 10643 ft 329 kts 266°
2026-04-24 15:52 40.64762 14.16267 10926 ft 340 kts 294°
2026-04-24 15:53 40.65922 14.13539 11517 ft 343 kts 310°
2026-04-24 15:53 40.67510 14.11201 12265 ft 343 kts 316°
2026-04-24 15:53 40.69209 14.09000 13023 ft 345 kts 318°
2026-04-24 15:53 40.70959 14.06809 13725 ft 349 kts 318°
2026-04-24 15:54 40.72728 14.04594 14391 ft 352 kts 318°
2026-04-24 15:54 40.74397 14.02221 15067 ft 355 kts 308°
2026-04-24 15:54 40.75741 13.99472 15742 ft 359 kts 303°
2026-04-24 15:54 40.77041 13.96625 16323 ft 364 kts 302°
2026-04-24 15:55 40.78340 13.93744 16979 ft 366 kts 302°
2026-04-24 15:55 40.79648 13.90847 17644 ft 369 kts 302°
2026-04-24 15:55 40.80974 13.87922 18219 ft 374 kts 302°
2026-04-24 15:55 40.82319 13.84967 18752 ft 377 kts 303°
2026-04-24 15:56 40.83681 13.81982 19270 ft 381 kts 303°
2026-04-24 15:56 40.85058 13.78971 19743 ft 386 kts 303°
2026-04-24 15:56 40.86454 13.75923 20227 ft 390 kts 303°
2026-04-24 15:56 40.87864 13.72841 20712 ft 394 kts 303°
2026-04-24 15:57 40.89287 13.69730 21176 ft 398 kts 303°
2026-04-24 15:57 40.90724 13.66585 21671 ft 402 kts 303°
2026-04-24 15:57 40.91682 13.64486 21973 ft 404 kts 303°
2026-04-24 15:57 40.93639 13.60195 22592 ft 409 kts 303°
2026-04-24 15:58 40.95114 13.56956 23053 ft 413 kts 303°
2026-04-24 15:58 40.96603 13.53683 23491 ft 417 kts 303°
2026-04-24 15:58 40.98102 13.50386 23893 ft 420 kts 303°
2026-04-24 15:58 40.99591 13.47105 24302 ft 422 kts 303°
2026-04-24 15:59 41.01102 13.43771 24736 ft 423 kts 303°
2026-04-24 15:59 41.02618 13.40425 25147 ft 425 kts 303°
2026-04-24 15:59 41.04141 13.37058 25529 ft 427 kts 303°
2026-04-24 15:59 41.05672 13.33671 25913 ft 429 kts 303°
2026-04-24 16:00 41.07209 13.30268 26291 ft 431 kts 303°
2026-04-24 16:00 41.08750 13.26851 26664 ft 433 kts 303°
2026-04-24 16:00 41.10300 13.23411 27034 ft 435 kts 303°
2026-04-24 16:00 41.11854 13.19957 27393 ft 437 kts 303°
2026-04-24 16:01 41.13413 13.16488 27737 ft 439 kts 303°
2026-04-24 16:01 41.14978 13.13003 28119 ft 440 kts 303°
2026-04-24 16:01 41.16541 13.09516 28607 ft 438 kts 303°
2026-04-24 16:01 41.18094 13.06045 29130 ft 436 kts 303°
2026-04-24 16:02 41.19115 13.03763 29461 ft 434 kts 303°
2026-04-24 16:02 41.20655 13.00318 29921 ft 433 kts 303°
2026-04-24 16:02 41.22191 12.96878 30328 ft 433 kts 303°
2026-04-24 16:02 41.23726 12.93437 30687 ft 432 kts 303°
2026-04-24 16:03 41.25254 12.90007 31041 ft 432 kts 303°
2026-04-24 16:03 41.26782 12.86575 31376 ft 431 kts 303°
2026-04-24 16:03 41.28315 12.83128 31487 ft 436 kts 303°
2026-04-24 16:03 41.29859 12.79652 31580 ft 435 kts 303°
2026-04-24 16:04 41.31386 12.76208 31872 ft 430 kts 303°
2026-04-24 16:04 41.32896 12.72796 32113 ft 428 kts 303°
2026-04-24 16:04 41.35947 12.65901 32102 ft 433 kts 303°
2026-04-24 16:05 41.40491 12.55596 32102 ft 428 kts 303°
2026-04-24 16:06 41.44566 12.46325 32117 ft 426 kts 303°
2026-04-24 16:07 41.49037 12.36123 32122 ft 427 kts 303°
2026-04-24 16:07 41.53542 12.25807 32123 ft 430 kts 303°
2026-04-24 16:08 41.58068 12.15405 32101 ft 433 kts 303°
2026-04-24 16:09 41.62612 12.04925 32098 ft 435 kts 303°
2026-04-24 16:09 41.65643 11.97914 32102 ft 436 kts 303°
2026-04-24 16:10 41.70417 11.87581 32095 ft 431 kts 314°
2026-04-24 16:11 41.74812 11.82270 32136 ft 424 kts 326°
2026-04-24 16:11 41.79551 11.77514 32134 ft 429 kts 327°
2026-04-24 16:12 41.84396 11.72642 32132 ft 441 kts 326°
2026-04-24 16:12 41.86853 11.70145 32124 ft 446 kts 326°
2026-04-24 16:13 41.94337 11.62472 32110 ft 460 kts 326°
2026-04-24 16:14 42.04636 11.51843 32104 ft 470 kts 326°
2026-04-24 16:14 42.12419 11.43783 32107 ft 469 kts 326°
2026-04-24 16:15 42.19896 11.36007 32104 ft 443 kts 326°
2026-04-24 16:16 42.27224 11.28383 32114 ft 443 kts 326°
2026-04-24 16:17 42.39221 11.15833 32102 ft 422 kts 326°
2026-04-24 16:18 42.48410 11.06186 32103 ft 408 kts 326°
2026-04-24 16:19 42.55078 10.99160 32125 ft 405 kts 326°
2026-04-24 16:20 42.61764 10.92102 32120 ft 407 kts 326°
2026-04-24 16:20 42.68473 10.84995 32115 ft 408 kts 326°
2026-04-24 16:21 42.75191 10.77855 32110 ft 409 kts 326°
2026-04-24 16:22 42.79678 10.73076 32111 ft 409 kts 326°
2026-04-24 16:22 42.86389 10.65910 32122 ft 408 kts 326°
2026-04-24 16:23 42.90854 10.61133 32125 ft 408 kts 326°
2026-04-24 16:24 42.98311 10.53136 31410 ft 413 kts 325°
2026-04-24 16:24 43.00564 10.50712 30988 ft 411 kts 325°
2026-04-24 16:24 43.02801 10.48303 30573 ft 408 kts 325°
2026-04-24 16:24 43.05027 10.45905 30167 ft 407 kts 325°
2026-04-24 16:25 43.07247 10.43510 29690 ft 406 kts 325°
2026-04-24 16:25 43.09456 10.41125 29210 ft 403 kts 325°
2026-04-24 16:25 43.11622 10.38785 28749 ft 400 kts 325°
2026-04-24 16:26 43.15962 10.34089 27842 ft 395 kts 325°
2026-04-24 16:26 43.18112 10.31761 27394 ft 393 kts 325°
2026-04-24 16:26 43.22368 10.27144 26527 ft 388 kts 324°
2026-04-24 16:27 43.24477 10.24854 26103 ft 386 kts 324°
2026-04-24 16:27 43.26574 10.22575 25677 ft 383 kts 324°
2026-04-24 16:27 43.28658 10.20307 25273 ft 381 kts 324°
2026-04-24 16:27 43.30731 10.18049 24868 ft 379 kts 324°
2026-04-24 16:28 43.32793 10.15802 24463 ft 378 kts 324°
2026-04-24 16:28 43.34846 10.13562 24068 ft 376 kts 324°
2026-04-24 16:28 43.38918 10.09113 23211 ft 372 kts 324°
2026-04-24 16:29 43.40428 10.07462 22868 ft 371 kts 324°
2026-04-24 16:29 43.42440 10.05260 22417 ft 369 kts 324°
2026-04-24 16:29 43.46440 10.00875 21531 ft 366 kts 324°
2026-04-24 16:30 43.50384 9.96545 20622 ft 364 kts 324°
2026-04-24 16:30 43.52356 9.94378 20180 ft 363 kts 324°
2026-04-24 16:30 43.54326 9.92210 19741 ft 361 kts 324°
2026-04-24 16:31 43.56284 9.90053 19313 ft 360 kts 323°
2026-04-24 16:31 43.58239 9.87898 18889 ft 359 kts 323°
2026-04-24 16:31 43.60185 9.85751 18467 ft 358 kts 323°
2026-04-24 16:31 43.62124 9.83610 17996 ft 356 kts 323°
2026-04-24 16:32 43.63429 9.82168 17674 ft 355 kts 323°
2026-04-24 16:32 43.65978 9.79349 17051 ft 353 kts 323°
2026-04-24 16:32 43.67891 9.77231 16579 ft 352 kts 323°
2026-04-24 16:32 43.69798 9.75119 16136 ft 351 kts 323°
2026-04-24 16:33 43.71697 9.73013 15686 ft 349 kts 323°
2026-04-24 16:33 43.73587 9.70916 15242 ft 348 kts 323°
2026-04-24 16:33 43.75472 9.68822 14811 ft 347 kts 323°
2026-04-24 16:33 43.77349 9.66736 14371 ft 345 kts 323°
2026-04-24 16:34 43.79218 9.64657 13950 ft 344 kts 323°
2026-04-24 16:34 43.81078 9.62585 13469 ft 343 kts 323°
2026-04-24 16:34 43.82933 9.60518 13007 ft 341 kts 323°
2026-04-24 16:34 43.84777 9.58462 12548 ft 340 kts 323°
2026-04-24 16:35 43.86614 9.56410 12091 ft 339 kts 323°
2026-04-24 16:35 43.88443 9.54368 11714 ft 335 kts 323°
2026-04-24 16:35 43.90237 9.52360 11420 ft 329 kts 323°
2026-04-24 16:35 43.92005 9.50381 11130 ft 324 kts 323°
2026-04-24 16:36 43.93748 9.48430 10822 ft 320 kts 323°
2026-04-24 16:36 43.95467 9.46504 10530 ft 315 kts 323°
2026-04-24 16:36 43.97163 9.44603 10240 ft 311 kts 323°
2026-04-24 16:36 43.98827 9.42706 9949 ft 308 kts 321°
2026-04-24 16:37 44.00370 9.40666 9619 ft 303 kts 317°
2026-04-24 16:37 44.01826 9.38609 9298 ft 294 kts 316°
2026-04-24 16:37 44.02762 9.37274 9085 ft 288 kts 316°
2026-04-24 16:37 44.04608 9.34659 8659 ft 278 kts 316°
2026-04-24 16:38 44.05954 9.32769 8346 ft 272 kts 316°
2026-04-24 16:38 44.07271 9.30930 8036 ft 265 kts 316°
2026-04-24 16:38 44.08558 9.29137 7732 ft 259 kts 316°
2026-04-24 16:38 44.09816 9.27385 7434 ft 253 kts 316°
2026-04-24 16:39 44.11045 9.25673 7128 ft 247 kts 316°
2026-04-24 16:39 44.12258 9.24013 6830 ft 242 kts 317°
2026-04-24 16:39 44.13466 9.22403 6537 ft 239 kts 318°
2026-04-24 16:39 44.14666 9.20812 6247 ft 238 kts 318°
2026-04-24 16:40 44.15862 9.19230 5936 ft 237 kts 318°
2026-04-24 16:40 44.16948 9.17811 5664 ft 236 kts 318°
2026-04-24 16:40 44.18153 9.16259 5363 ft 236 kts 318°
2026-04-24 16:40 44.19349 9.14739 5071 ft 235 kts 318°
2026-04-24 16:41 44.20566 9.13224 4768 ft 235 kts 318°
2026-04-24 16:41 44.21858 9.11853 4444 ft 234 kts 334°
2026-04-24 16:41 44.22872 9.11296 4248 ft 230 kts 340°
2026-04-24 16:41 44.24477 9.10572 4037 ft 220 kts 342°
2026-04-24 16:42 44.25881 9.09955 4012 ft 202 kts 340°
2026-04-24 16:42 44.27112 9.09177 4028 ft 190 kts 333°
2026-04-24 16:42 44.28286 9.08370 4026 ft 186 kts 333°
2026-04-24 16:42 44.29421 9.07590 4021 ft 177 kts 333°
2026-04-24 16:43 44.30537 9.06828 3700 ft 184 kts 335°
2026-04-24 16:43 44.31678 9.06064 3249 ft 180 kts 329°
2026-04-24 16:43 44.32742 9.05186 2817 ft 176 kts 328°
2026-04-24 16:43 44.33781 9.04309 2372 ft 173 kts 328°
2026-04-24 16:44 44.34792 9.03444 2055 ft 163 kts 325°
2026-04-24 16:44 44.35687 9.02558 2059 ft 156 kts 323°
2026-04-24 16:44 44.36534 9.01620 2011 ft 154 kts 314°
2026-04-24 16:44 44.37227 9.00476 2020 ft 155 kts 308°
2026-04-24 16:45 44.37799 8.99216 2006 ft 150 kts 293°
2026-04-24 16:45 44.38200 8.97906 1852 ft 145 kts 291°
2026-04-24 16:45 44.38527 8.96605 1683 ft 143 kts 287°
2026-04-24 16:45 44.38817 8.95308 1485 ft 135 kts 286°
2026-04-24 16:46 44.39086 8.94079 1304 ft 129 kts 285°
2026-04-24 16:46 44.39352 8.92871 1135 ft 132 kts 286°
2026-04-24 16:46 44.39610 8.91781 933 ft 134 kts 282°
2026-04-24 16:46 44.39877 8.90554 757 ft 130 kts 285°
2026-04-24 16:47 44.40160 8.89362 584 ft 129 kts 287°
2026-04-24 16:47 44.40422 8.88160 401 ft 128 kts 283°
2026-04-24 16:47 44.40654 8.86956 229 ft 128 kts 283°
2026-04-24 16:47 44.40885 8.85760 66 ft 127 kts 283°
2026-04-24 16:48 44.41104 8.84644 21 ft 112 kts 285°
2026-04-24 16:48 44.41277 8.83751 19 ft 79 kts 284°
2026-04-24 16:48 44.41401 8.83186 20 ft 45 kts 304°
2026-04-24 16:48 44.41540 8.83122 19 ft 12 kts 54°
2026-04-24 16:49 44.41540 8.83204 21 ft 8 kts 104°
2026-04-24 16:49 44.41531 8.83257 19 ft 8 kts 104°
2026-04-24 16:49 44.41512 8.83359 21 ft 8 kts 104°
2026-04-24 16:49 44.41497 8.83433 20 ft 8 kts 106°
2026-04-24 16:50 44.41492 8.83457 19 ft 8 kts 106°
2026-04-24 16:50 44.41470 8.83568 20 ft 10 kts 105°
2026-04-24 16:50 44.41450 8.83668 19 ft 12 kts 105°
2026-04-24 16:50 44.41427 8.83783 20 ft 13 kts 105°
2026-04-24 16:51 44.41403 8.83911 19 ft 14 kts 104°
2026-04-24 16:51 44.41377 8.84047 19 ft 15 kts 107°
2026-04-24 16:51 44.41347 8.84182 19 ft 14 kts 105°
2026-04-24 16:51 44.41322 8.84316 19 ft 14 kts 104°
2026-04-24 16:52 44.41327 8.84424 19 ft 11 kts 59°
2026-04-24 16:52 44.41375 8.84516 19 ft 12 kts 52°
2026-04-24 16:52 44.41429 8.84614 19 ft 13 kts 52°
2026-04-24 16:52 44.41473 8.84689 19 ft 3 kts 31°
2026-04-24 16:53 44.41496 8.84686 19 ft 4 kts 345°
2026-04-24 16:53 44.41528 8.84658 19 ft 7 kts 324°
2026-04-24 16:53 44.41537 8.84650 19 ft 0 kts 324°